User: anonymous   Login
Location: Muenchen
(48.1800°N, 11.5800°E)
Time: 23:33:49
(UTC+01:00)
Language:

Iridium 73 - Orbit

View from above orbital plane
View from above orbital plane
View from above satellite
View from above satellite

Ground track
Ground track

The orbit data is extracted from the following two-line orbital elements,

1 25344U 98032C   16040.53385709  .00000307  00000-0  75914-4 0  9991
2 25344  86.4393  51.5524 0001551  87.4651  25.0062 14.48888411936075
Epoch (UTC): 09 February 2016 12:48:45
Eccentricity: 0.0001551
inclination: 86.4393°
perigee height: 728 km
apogee height: 730 km
right ascension of ascending node: 51.5524°
argument of perigee: 87.4651°
revolutions per day: 14.48888411
mean anomaly at epoch: 25.0062°
orbit number at epoch: 93607

The dashed part of the orbit path shows where the satellite is in the earth's shadow,  

DLR